Flag for China Weather past 2 weeks in Xiamen, Fujian, China

Now
86 °F

Scattered clouds.


Feels Like: 102 °F
Forecast: 80 / 91 °F
Wind: 3 mph from Northeast

Location: Xiamen Airport

Current Time: Jul 26, 2014 at 10:13:27 AM

Latest Report: Jul 26, 2014 at 9:00 AM


Visibility: N/A

Pressure: 29.86 "Hg

Humidity: 84%

Dew point: 81 °F

Location of XiamenLocation

Historic Weather in Xiamen — Graph

°F

Xiamen temperature yesterday

Maximum temperature yesterday: 91 °F (at 11:00 AM)
Minimum temperature yesterday: 81 °F (at 12:00 AM)
Average temperature yesterday: 85 °F

Past Weeks' High & Low Weather Summary

 TemperatureHumidityPressure
High99 °F (Jul 22, 2:00 PM)100% (Jul 23, 1:00 PM)29.86 "Hg (Jul 23, 1:00 PM)
Low77 °F (Jul 24, 12:00 PM)39% (Jul 22, 12:00 PM)29.24 "Hg (Jul 23, 2:00 PM)
Average87 °F76%29.71 "Hg
* Reported Jul 11 8:00 AM — Jul 26 8:00 AM, Xiamen, Weather by CustomWeather, © 2014

Note: Actual official high and low records may vary slightly from our data, if they occured in-between our weather recording intervals... More about our weather records

Advertising

Xiamen weather history for previous 24 hours

 ConditionsComfort  
Time TempWeatherWind HumidityBarometerVisibility
8:00 AM
Jul 26
84 °FPartly sunny.3 mph84%29.86 "HgN/A
7:00 AM86 °FPassing clouds.1 mph79%29.83 "HgN/A
6:00 AM82 °FScattered clouds.1 mph89%29.83 "HgN/A
5:00 AM81 °FPassing clouds.1 mph94%29.80 "HgN/A
4:00 AM81 °FClear.1 mph94%29.80 "Hg10 mi
3:00 AM81 °FPassing clouds.3 mph94%29.80 "HgN/A
2:00 AM82 °FPassing clouds.6 mph89%29.80 "HgN/A
1:00 AM81 °FPassing clouds.6 mph94%29.80 "HgN/A
12:00 AM82 °FPartly cloudy.3 mph94%29.80 "HgN/A
11:00 PM
Jul 25
84 °FPassing clouds.3 mph89%29.83 "HgN/A
10:00 PM84 °FPassing clouds.3 mph89%29.83 "HgN/A
9:00 PM82 °FPassing clouds.3 mph94%29.80 "HgN/A
8:00 PM84 °FPassing clouds.3 mph89%29.77 "HgN/A
7:00 PM84 °FPassing clouds.3 mph84%29.74 "HgN/A
6:00 PM86 °FPassing clouds.6 mph79%29.71 "HgN/A
5:00 PM88 °FPassing clouds.13 mph75%29.71 "HgN/A
4:00 PM88 °FPassing clouds.17 mph75%29.71 "HgN/A
3:00 PM91 °FPassing clouds.8 mph63%29.68 "HgN/A
2:00 PM91 °FPassing clouds.10 mph63%29.71 "HgN/A
1:00 PM91 °FPassing clouds.13 mph67%29.71 "HgN/A
12:00 PM91 °FScattered clouds.8 mph71%29.74 "HgN/A
11:00 AM91 °FScattered clouds.6 mph71%29.74 "HgN/A
10:00 AM88 °FPartly sunny.6 mph79%29.74 "HgN/A
Weather by CustomWeather, © 2014

See weather overviewHow to use our weather pages